Location: Alpino
(32.5215°N, 116.5815°W)
Time: 09:03:45
(UTC+00:00)

Delta 2 Rocket - Pass Details

Date: 13 April 2024
Orbit: 399 x 679 km, 35.6° (Epoch: 22 May)

Event Time Altitude Azimuth Distance (km) Brightness Sun altitude
Exits shadow 10:57:36 13° 137° (SE) 1,855 6.1 -28.2°
Drops below altitude 10° 10:59:26 10° 115° (ESE) 2,060 6.6 -27.9°
Enters shadow 11:57:02 -69° 252° (WSW) 12,476 10.1 -17.2°
Maximum altitude 12:37:36 50° 156° (SSE) 813 4.2 -9.2°
